Time,TemperatureF,DewpointF,PressureIn,WindDirection,WindDirectionDegrees,WindSpeedMPH,WindSpeedGustMPH,Humidity,HourlyPrecipIn,Conditions,Clouds,dailyrainin,SoftwareType,DateUTC
2013-02-02 00:00:00,25.6,17.2,30.33,SE,142,9.0,-999.0,70,0.00,,,0.00,Wunderground v.1.15,2013-02-02 06:00:00,
2013-02-02 00:05:00,25.6,17.2,30.33,West,279,9.0,-999.0,70,0.00,,,0.00,Wunderground v.1.15,2013-02-02 06:05:00,
2013-02-02 00:10:00,25.7,17.3,30.32,SE,138,9.0,-999.0,70,0.00,,,0.00,Wunderground v.1.15,2013-02-02 06:10:00,
2013-02-02 00:15:00,25.7,17.3,30.32,SE,145,10.0,-999.0,70,0.00,,,0.00,Wunderground v.1.15,2013-02-02 06:15:00,
2013-02-02 00:20:00,25.8,17.4,30.32,West,279,9.0,-999.0,70,0.00,,,0.00,Wunderground v.1.15,2013-02-02 06:20:00,
2013-02-02 00:25:00,25.9,17.5,30.31,West,279,9.0,-999.0,70,0.00,,,0.00,Wunderground v.1.15,2013-02-02 06:25:00,
2013-02-02 00:30:00,25.9,17.5,30.31,West,279,10.0,-999.0,70,0.00,,,0.00,Wunderground v.1.15,2013-02-02 06:30:00,
2013-02-02 00:35:00,26.0,17.6,30.31,SE,136,10.0,-999.0,70,0.00,,,0.00,Wunderground v.1.15,2013-02-02 06:35:00,
2013-02-02 00:40:00,26.0,17.6,30.31,SE,132,7.0,-999.0,70,0.00,,,0.00,Wunderground v.1.15,2013-02-02 06:40:00,
2013-02-02 00:45:00,26.0,17.2,30.31,SE,138,7.0,-999.0,69,0.00,,,0.00,Wunderground v.1.15,2013-02-02 06:45:00,
2013-02-02 00:50:00,26.1,17.3,30.32,SE,142,7.0,-999.0,69,0.00,,,0.00,Wunderground v.1.15,2013-02-02 06:50:00,
2013-02-02 00:55:00,26.0,17.2,30.32,West,279,5.0,-999.0,69,0.00,,,0.00,Wunderground v.1.15,2013-02-02 06:55:00,
2013-02-02 01:00:00,26.0,17.6,30.32,West,279,4.0,-999.0,70,0.00,,,0.00,Wunderground v.1.15,2013-02-02 07:00:00,
2013-02-02 01:05:00,26.0,17.6,30.32,South,173,6.0,-999.0,70,0.00,,,0.00,Wunderground v.1.15,2013-02-02 07:05:00,
2013-02-02 01:10:00,26.0,17.6,30.32,SSE,161,9.0,-999.0,70,0.00,,,0.00,Wunderground v.1.15,2013-02-02 07:10:00,
2013-02-02 01:15:00,26.0,17.2,30.32,SSE,153,4.0,-999.0,69,0.00,,,0.00,Wunderground v.1.15,2013-02-02 07:15:00,
2013-02-02 01:20:00,26.0,17.2,30.32,SSE,158,4.0,-999.0,69,0.00,,,0.00,Wunderground v.1.15,2013-02-02 07:20:00,
2013-02-02 01:25:00,26.1,17.3,30.31,West,279,7.0,-999.0,69,0.00,,,0.00,Wunderground v.1.15,2013-02-02 07:25:00,
2013-02-02 01:30:00,26.1,17.0,30.31,SSE,151,6.0,-999.0,68,0.00,,,0.00,Wunderground v.1.15,2013-02-02 07:30:00,
2013-02-02 01:35:00,26.1,17.0,30.32,SSE,163,3.0,-999.0,68,0.00,,,0.00,Wunderground v.1.15,2013-02-02 07:35:00,
2013-02-02 01:40:00,26.2,17.1,30.31,SSE,155,5.0,-999.0,68,0.00,,,0.00,Wunderground v.1.15,2013-02-02 07:40:00,
2013-02-02 01:45:00,26.2,17.1,30.31,SSE,163,7.0,-999.0,68,0.00,,,0.00,Wunderground v.1.15,2013-02-02 07:45:00,
2013-02-02 01:50:00,26.2,17.1,30.30,SSE,156,4.0,-999.0,68,0.00,,,0.00,Wunderground v.1.15,2013-02-02 07:50:00,
2013-02-02 01:55:00,26.2,18.4,30.30,SE,144,4.0,-999.0,72,0.00,,,0.00,Wunderground v.1.15,2013-02-02 07:55:00,
2013-02-02 02:00:00,26.2,17.7,30.30,SE,140,6.0,-999.0,70,0.00,,,0.00,Wunderground v.1.15,2013-02-02 08:00:00,
2013-02-02 02:05:00,26.2,17.7,30.31,SE,140,7.0,-999.0,70,0.00,,,0.00,Wunderground v.1.15,2013-02-02 08:05:00,
2013-02-02 02:10:00,26.3,17.8,30.31,West,279,8.0,-999.0,70,0.00,,,0.00,Wunderground v.1.15,2013-02-02 08:10:00,
2013-02-02 02:15:00,26.3,17.8,30.31,West,279,10.0,-999.0,70,0.00,,,0.00,Wunderground v.1.15,2013-02-02 08:15:00,
2013-02-02 02:20:00,26.4,17.9,30.30,SE,141,7.0,-999.0,70,0.00,,,0.00,Wunderground v.1.15,2013-02-02 08:20:00,
2013-02-02 02:25:00,26.5,17.7,30.30,SE,141,11.0,-999.0,69,0.00,,,0.00,Wunderground v.1.15,2013-02-02 08:25:00,
2013-02-02 02:30:00,26.5,18.0,30.29,SE,130,10.0,-999.0,70,0.00,,,0.00,Wunderground v.1.15,2013-02-02 08:30:00,
2013-02-02 02:35:00,26.5,18.0,30.28,SE,126,9.0,-999.0,70,0.00,,,0.00,Wunderground v.1.15,2013-02-02 08:35:00,
2013-02-02 02:40:00,26.5,17.7,30.28,SE,131,10.0,-999.0,69,0.00,,,0.00,Wunderground v.1.15,2013-02-02 08:40:00,
2013-02-02 02:45:00,26.6,18.1,30.27,SE,127,12.0,-999.0,70,0.00,,,0.00,Wunderground v.1.15,2013-02-02 08:45:00,
2013-02-02 02:50:00,26.7,17.6,30.28,SE,131,11.0,-999.0,68,0.00,,,0.00,Wunderground v.1.15,2013-02-02 08:50:00,
2013-02-02 02:55:00,26.7,17.6,30.28,SE,134,5.0,-999.0,68,0.00,,,0.00,Wunderground v.1.15,2013-02-02 08:55:00,
2013-02-02 03:00:00,26.8,18.0,30.29,West,279,9.0,-999.0,69,0.00,,,0.00,Wunderground v.1.15,2013-02-02 09:00:00,
2013-02-02 03:05:00,26.8,18.3,30.28,SE,136,8.0,-999.0,70,0.00,,,0.00,Wunderground v.1.15,2013-02-02 09:05:00,
2013-02-02 03:10:00,26.8,18.3,30.28,West,279,5.0,-999.0,70,0.00,,,0.00,Wunderground v.1.15,2013-02-02 09:10:00,
2013-02-02 03:15:00,26.9,18.1,30.26,SE,128,6.0,-999.0,69,0.00,,,0.00,Wunderground v.1.15,2013-02-02 09:15:00,
2013-02-02 03:20:00,26.9,18.4,30.26,SE,126,6.0,-999.0,70,0.00,,,0.00,Wunderground v.1.15,2013-02-02 09:20:00,
2013-02-02 03:25:00,27.0,18.2,30.26,ESE,121,8.0,-999.0,69,0.00,,,0.00,Wunderground v.1.15,2013-02-02 09:25:00,
2013-02-02 03:30:00,27.0,18.5,30.26,SE,127,8.0,-999.0,70,0.00,,,0.00,Wunderground v.1.15,2013-02-02 09:30:00,
2013-02-02 03:35:00,27.0,18.5,30.26,SE,133,12.0,-999.0,70,0.00,,,0.00,Wunderground v.1.15,2013-02-02 09:35:00,
2013-02-02 03:40:00,27.1,18.6,30.26,SE,137,12.0,-999.0,70,0.00,,,0.00,Wunderground v.1.15,2013-02-02 09:40:00,
2013-02-02 03:45:00,27.1,18.3,30.25,ESE,117,9.0,-999.0,69,0.00,,,0.00,Wunderground v.1.15,2013-02-02 09:45:00,
2013-02-02 03:50:00,27.2,18.7,30.26,SE,136,10.0,-999.0,70,0.00,,,0.00,Wunderground v.1.15,2013-02-02 09:50:00,
2013-02-02 03:55:00,27.2,18.4,30.26,SSE,155,6.0,-999.0,69,0.00,,,0.00,Wunderground v.1.15,2013-02-02 09:55:00,
2013-02-02 04:00:00,27.3,18.5,30.25,SE,146,8.0,-999.0,69,0.00,,,0.00,Wunderground v.1.15,2013-02-02 10:00:00,
2013-02-02 04:05:00,27.3,18.5,30.26,West,279,11.0,-999.0,69,0.00,,,0.00,Wunderground v.1.15,2013-02-02 10:05:00,
2013-02-02 04:10:00,27.4,18.2,30.26,South,184,11.0,-999.0,68,0.00,,,0.00,Wunderground v.1.15,2013-02-02 10:10:00,
2013-02-02 04:15:00,27.5,18.0,30.26,West,279,10.0,-999.0,67,0.00,,,0.00,Wunderground v.1.15,2013-02-02 10:15:00,
2013-02-02 04:20:00,27.6,18.4,30.25,SE,140,9.0,-999.0,68,0.00,,,0.00,Wunderground v.1.15,2013-02-02 10:20:00,
2013-02-02 04:25:00,27.6,18.1,30.25,SE,128,7.0,-999.0,67,0.00,,,0.00,Wunderground v.1.15,2013-02-02 10:25:00,
2013-02-02 04:30:00,27.7,18.5,30.26,SSE,159,9.0,-999.0,68,0.00,,,0.00,Wunderground v.1.15,2013-02-02 10:30:00,
2013-02-02 04:35:00,27.7,18.5,30.25,SSE,149,8.0,-999.0,68,0.00,,,0.00,Wunderground v.1.15,2013-02-02 10:35:00,
2013-02-02 04:40:00,27.7,18.8,30.24,SE,137,8.0,-999.0,69,0.00,,,0.00,Wunderground v.1.15,2013-02-02 10:40:00,
2013-02-02 04:45:00,27.6,18.8,30.24,SE,137,11.0,-999.0,69,0.00,,,0.00,Wunderground v.1.15,2013-02-02 10:45:00,
2013-02-02 04:50:00,27.7,19.2,30.25,SE,141,10.0,-999.0,70,0.00,,,0.00,Wunderground v.1.15,2013-02-02 10:50:00,
2013-02-02 04:55:00,27.7,18.8,30.24,SE,144,12.0,-999.0,69,0.00,,,0.00,Wunderground v.1.15,2013-02-02 10:55:00,
2013-02-02 05:00:00,27.7,18.8,30.24,SE,144,12.0,-999.0,69,0.00,,,0.00,Wunderground v.1.15,2013-02-02 11:00:00,
2013-02-02 05:05:00,27.8,18.9,30.24,West,279,9.0,-999.0,69,0.00,,,0.00,Wunderground v.1.15,2013-02-02 11:05:00,
2013-02-02 05:10:00,27.8,18.9,30.23,West,279,12.0,-999.0,69,0.00,,,0.00,Wunderground v.1.15,2013-02-02 11:10:00,
2013-02-02 05:15:00,27.9,19.0,30.22,SE,136,18.0,-999.0,69,0.00,,,0.00,Wunderground v.1.15,2013-02-02 11:15:00,
2013-02-02 05:20:00,27.9,19.4,30.21,ESE,122,16.0,-999.0,70,0.00,,,0.00,Wunderground v.1.15,2013-02-02 11:20:00,
2013-02-02 05:25:00,28.0,18.8,30.20,SE,128,14.0,-999.0,68,0.00,,,0.00,Wunderground v.1.15,2013-02-02 11:25:00,
2013-02-02 05:30:00,28.0,18.8,30.20,West,279,14.0,-999.0,68,0.00,,,0.00,Wunderground v.1.15,2013-02-02 11:30:00,
2013-02-02 05:35:00,28.0,18.8,30.19,SE,126,17.0,-999.0,68,0.00,,,0.00,Wunderground v.1.15,2013-02-02 11:35:00,
2013-02-02 05:40:00,28.1,18.9,30.20,West,279,17.0,-999.0,68,0.00,,,0.00,Wunderground v.1.15,2013-02-02 11:40:00,
2013-02-02 05:45:00,28.2,19.0,30.20,SE,143,15.0,-999.0,68,0.00,,,0.00,Wunderground v.1.15,2013-02-02 11:45:00,
2013-02-02 05:50:00,28.3,18.7,30.22,SSW,194,9.0,-999.0,67,0.00,,,0.00,Wunderground v.1.15,2013-02-02 11:50:00,
2013-02-02 05:55:00,28.4,18.5,30.22,SSE,159,14.0,-999.0,66,0.00,,,0.00,Wunderground v.1.15,2013-02-02 11:55:00,
2013-02-02 06:00:00,28.5,18.2,30.22,West,279,10.0,-999.0,65,0.00,,,0.00,Wunderground v.1.15,2013-02-02 12:00:00,
2013-02-02 06:05:00,28.6,18.3,30.21,SSE,161,10.0,-999.0,65,0.00,,,0.00,Wunderground v.1.15,2013-02-02 12:05:00,
2013-02-02 06:10:00,28.7,18.4,30.21,SSE,159,11.0,-999.0,65,0.00,,,0.00,Wunderground v.1.15,2013-02-02 12:10:00,
2013-02-02 06:15:00,28.7,18.4,30.21,SSE,167,11.0,-999.0,65,0.00,,,0.00,Wunderground v.1.15,2013-02-02 12:15:00,
2013-02-02 06:20:00,28.6,18.3,30.21,SSE,161,10.0,-999.0,65,0.00,,,0.00,Wunderground v.1.15,2013-02-02 12:20:00,
2013-02-02 06:25:00,28.5,18.6,30.21,SSE,167,9.0,-999.0,66,0.00,,,0.00,Wunderground v.1.15,2013-02-02 12:25:00,
2013-02-02 06:30:00,28.4,18.5,30.20,West,279,10.0,-999.0,66,0.00,,,0.00,Wunderground v.1.15,2013-02-02 12:30:00,
2013-02-02 06:35:00,28.3,18.4,30.20,West,279,9.0,-999.0,66,0.00,,,0.00,Wunderground v.1.15,2013-02-02 12:35:00,
2013-02-02 06:39:00,28.0,18.5,30.20,West,279,9.0,-999.0,67,0.00,,,0.00,Wunderground v.1.15,2013-02-02 12:39:00,
2013-02-02 06:44:00,27.8,18.3,30.20,South,173,12.0,-999.0,67,0.00,,,0.00,Wunderground v.1.15,2013-02-02 12:44:00,
2013-02-02 06:49:00,27.6,18.4,30.20,SSE,162,11.0,-999.0,68,0.00,,,0.00,Wunderground v.1.15,2013-02-02 12:49:00,
2013-02-02 06:54:00,27.4,18.2,30.20,SSE,167,9.0,-999.0,68,0.00,,,0.00,Wunderground v.1.15,2013-02-02 12:54:00,
2013-02-02 06:59:00,27.0,18.5,30.20,West,279,10.0,-999.0,70,0.00,,,0.00,Wunderground v.1.15,2013-02-02 12:59:00,
2013-02-02 07:04:00,26.8,18.7,30.20,SSE,164,10.0,-999.0,71,0.00,,,0.00,Wunderground v.1.15,2013-02-02 13:04:00,
2013-02-02 07:09:00,26.5,18.4,30.19,SSE,165,10.0,-999.0,71,0.00,,,0.00,Wunderground v.1.15,2013-02-02 13:09:00,
2013-02-02 07:14:00,26.3,18.8,30.19,SSE,159,11.0,-999.0,73,0.00,,,0.00,Wunderground v.1.15,2013-02-02 13:14:00,
2013-02-02 07:19:00,26.1,18.6,30.20,South,172,11.0,-999.0,73,0.00,,,0.00,Wunderground v.1.15,2013-02-02 13:19:00,
2013-02-02 07:24:00,26.1,18.6,30.19,SSE,151,13.0,-999.0,73,0.00,,,0.00,Wunderground v.1.15,2013-02-02 13:24:00,
2013-02-02 07:29:00,26.2,18.7,30.19,SSE,165,14.0,-999.0,73,0.00,,,0.00,Wunderground v.1.15,2013-02-02 13:29:00,
2013-02-02 07:34:00,26.6,18.5,30.19,West,279,12.0,-999.0,71,0.00,,,0.00,Wunderground v.1.15,2013-02-02 13:34:00,
2013-02-02 07:39:00,27.3,18.5,30.19,SSE,163,14.0,-999.0,69,0.00,,,0.00,Wunderground v.1.15,2013-02-02 13:39:00,
2013-02-02 07:44:00,28.2,19.0,30.19,West,279,13.0,-999.0,68,0.00,,,0.00,Wunderground v.1.15,2013-02-02 13:44:00,
2013-02-02 07:49:00,29.0,19.1,30.19,SSE,164,14.0,-999.0,66,0.00,,,0.00,Wunderground v.1.15,2013-02-02 13:49:00,
2013-02-02 07:54:00,29.6,18.9,30.19,SSE,165,13.0,-999.0,64,0.00,,,0.00,Wunderground v.1.15,2013-02-02 13:54:00,
2013-02-02 07:59:00,30.2,19.5,30.19,SSE,167,13.0,-999.0,64,0.00,,,0.00,Wunderground v.1.15,2013-02-02 13:59:00,
2013-02-02 08:04:00,30.6,19.5,30.19,West,279,14.0,-999.0,63,0.00,,,0.00,Wunderground v.1.15,2013-02-02 14:04:00,
2013-02-02 08:09:00,30.8,19.7,30.19,SSE,166,11.0,-999.0,63,0.00,,,0.00,Wunderground v.1.15,2013-02-02 14:09:00,
2013-02-02 08:14:00,31.1,19.6,30.19,SSE,163,12.0,-999.0,62,0.00,,,0.00,Wunderground v.1.15,2013-02-02 14:14:00,
2013-02-02 08:19:00,31.2,19.7,30.19,South,170,18.0,-999.0,62,0.00,,,0.00,Wunderground v.1.15,2013-02-02 14:19:00,
2013-02-02 08:24:00,31.4,19.9,30.19,SSE,159,12.0,-999.0,62,0.00,,,0.00,Wunderground v.1.15,2013-02-02 14:24:00,
2013-02-02 08:29:00,31.5,20.3,30.19,West,279,17.0,-999.0,63,0.00,,,0.00,Wunderground v.1.15,2013-02-02 14:29:00,
2013-02-02 08:34:00,31.6,20.4,30.19,South,171,12.0,-999.0,63,0.00,,,0.00,Wunderground v.1.15,2013-02-02 14:34:00,
2013-02-02 08:39:00,31.8,20.6,30.19,South,184,14.0,-999.0,63,0.00,,,0.00,Wunderground v.1.15,2013-02-02 14:39:00,
2013-02-02 08:44:00,32.0,20.8,30.19,South,185,13.0,-999.0,63,0.00,,,0.00,Wunderground v.1.15,2013-02-02 14:44:00,
2013-02-02 08:49:00,32.2,21.0,30.18,West,279,15.0,-999.0,63,0.00,,,0.00,Wunderground v.1.15,2013-02-02 14:49:00,
2013-02-02 08:54:00,32.3,21.5,30.18,SSE,165,18.0,-999.0,64,0.00,,,0.00,Wunderground v.1.15,2013-02-02 14:54:00,
2013-02-02 08:59:00,32.5,21.3,30.18,South,171,17.0,-999.0,63,0.00,,,0.00,Wunderground v.1.15,2013-02-02 14:59:00,
2013-02-02 09:04:00,32.5,21.3,30.18,SSE,166,12.0,-999.0,63,0.00,,,0.00,Wunderground v.1.15,2013-02-02 15:04:00,
2013-02-02 09:09:00,32.7,21.5,30.18,West,279,13.0,-999.0,63,0.00,,,0.00,Wunderground v.1.15,2013-02-02 15:09:00,
2013-02-02 09:14:00,32.9,21.7,30.17,SSE,162,9.0,-999.0,63,0.00,,,0.00,Wunderground v.1.15,2013-02-02 15:14:00,
2013-02-02 09:19:00,33.1,21.9,30.17,South,186,11.0,-999.0,63,0.00,,,0.00,Wunderground v.1.15,2013-02-02 15:19:00,
2013-02-02 09:24:00,33.3,22.1,30.17,SSE,155,14.0,-999.0,63,0.00,,,0.00,Wunderground v.1.15,2013-02-02 15:24:00,
2013-02-02 09:29:00,33.6,22.3,30.17,SE,144,14.0,-999.0,63,0.00,,,0.00,Wunderground v.1.15,2013-02-02 15:29:00,
2013-02-02 09:34:00,33.9,22.2,30.17,West,279,15.0,-999.0,62,0.00,,,0.00,Wunderground v.1.15,2013-02-02 15:34:00,
2013-02-02 09:39:00,34.2,22.5,30.17,SSE,150,13.0,-999.0,62,0.00,,,0.00,Wunderground v.1.15,2013-02-02 15:39:00,
2013-02-02 09:44:00,34.4,22.7,30.17,West,279,16.0,-999.0,62,0.00,,,0.00,Wunderground v.1.15,2013-02-02 15:44:00,
2013-02-02 09:49:00,34.7,23.0,30.17,SSE,166,12.0,-999.0,62,0.00,,,0.00,Wunderground v.1.15,2013-02-02 15:49:00,
2013-02-02 09:54:00,35.2,23.1,30.17,West,279,11.0,-999.0,61,0.00,,,0.00,Wunderground v.1.15,2013-02-02 15:54:00,
2013-02-02 09:59:00,35.6,23.1,30.17,West,279,14.0,-999.0,60,0.00,,,0.00,Wunderground v.1.15,2013-02-02 15:59:00,
2013-02-02 10:04:00,35.9,23.4,30.17,West,279,18.0,-999.0,60,0.00,,,0.00,Wunderground v.1.15,2013-02-02 16:04:00,
2013-02-02 10:09:00,36.1,23.1,30.17,SSE,162,17.0,-999.0,59,0.00,,,0.00,Wunderground v.1.15,2013-02-02 16:09:00,
2013-02-02 10:14:00,36.4,23.4,30.16,South,188,9.0,-999.0,59,0.00,,,0.00,Wunderground v.1.15,2013-02-02 16:14:00,
2013-02-02 10:19:00,36.8,23.8,30.17,West,279,18.0,-999.0,59,0.00,,,0.00,Wunderground v.1.15,2013-02-02 16:19:00,
2013-02-02 10:24:00,37.2,23.8,30.18,West,279,19.0,-999.0,58,0.00,,,0.00,Wunderground v.1.15,2013-02-02 16:24:00,
2013-02-02 10:29:00,37.4,24.4,30.16,West,279,10.0,-999.0,59,0.00,,,0.00,Wunderground v.1.15,2013-02-02 16:29:00,
2013-02-02 10:34:00,37.5,24.1,30.17,South,184,17.0,-999.0,58,0.00,,,0.00,Wunderground v.1.15,2013-02-02 16:34:00,
2013-02-02 10:39:00,37.5,23.6,30.17,South,181,19.0,-999.0,57,0.00,,,0.00,Wunderground v.1.15,2013-02-02 16:39:00,
2013-02-02 10:44:00,37.5,23.6,30.17,West,279,15.0,-999.0,57,0.00,,,0.00,Wunderground v.1.15,2013-02-02 16:44:00,
2013-02-02 10:49:00,37.7,23.8,30.16,West,279,19.0,-999.0,57,0.00,,,0.00,Wunderground v.1.15,2013-02-02 16:49:00,
2013-02-02 10:54:00,37.8,23.5,30.16,SSW,198,16.0,-999.0,56,0.00,,,0.00,Wunderground v.1.15,2013-02-02 16:54:00,
2013-02-02 10:59:00,37.9,23.6,30.16,South,182,16.0,-999.0,56,0.00,,,0.00,Wunderground v.1.15,2013-02-02 16:59:00,
2013-02-02 11:04:00,38.2,23.9,30.16,SSW,192,17.0,-999.0,56,0.00,,,0.00,Wunderground v.1.15,2013-02-02 17:04:00,
2013-02-02 11:09:00,38.3,24.0,30.16,South,189,12.0,-999.0,56,0.00,,,0.00,Wunderground v.1.15,2013-02-02 17:09:00,
2013-02-02 11:14:00,38.4,23.6,30.16,West,279,16.0,-999.0,55,0.00,,,0.00,Wunderground v.1.15,2013-02-02 17:14:00,
2013-02-02 11:19:00,38.5,24.6,30.15,SSE,166,9.0,-999.0,57,0.00,,,0.00,Wunderground v.1.15,2013-02-02 17:19:00,
2013-02-02 11:24:00,38.7,24.3,30.15,South,180,15.0,-999.0,56,0.00,,,0.00,Wunderground v.1.15,2013-02-02 17:24:00,
2013-02-02 11:29:00,38.9,24.5,30.17,SSW,194,19.0,-999.0,56,0.00,,,0.00,Wunderground v.1.15,2013-02-02 17:29:00,
2013-02-02 11:34:00,38.9,24.1,30.15,South,188,19.0,-999.0,55,0.00,,,0.00,Wunderground v.1.15,2013-02-02 17:34:00,
2013-02-02 11:39:00,38.8,24.0,30.15,South,185,19.0,-999.0,55,0.00,,,0.00,Wunderground v.1.15,2013-02-02 17:39:00,
2013-02-02 11:44:00,38.8,24.0,30.15,West,279,16.0,-999.0,55,0.00,,,0.00,Wunderground v.1.15,2013-02-02 17:44:00,
2013-02-02 11:49:00,38.7,24.8,30.15,SSW,203,14.0,-999.0,57,0.00,,,0.00,Wunderground v.1.15,2013-02-02 17:49:00,
2013-02-02 11:54:00,38.6,24.2,30.15,SSW,207,16.0,-999.0,56,0.00,,,0.00,Wunderground v.1.15,2013-02-02 17:54:00,
2013-02-02 11:59:00,38.5,24.1,30.14,SSW,204,21.0,-999.0,56,0.00,,,0.00,Wunderground v.1.15,2013-02-02 17:59:00,
2013-02-02 12:04:00,38.3,24.4,30.13,SW,215,13.0,-999.0,57,0.00,,,0.00,Wunderground v.1.15,2013-02-02 18:04:00,
2013-02-02 12:09:00,38.5,25.0,30.13,SSW,196,17.0,-999.0,58,0.00,,,0.00,Wunderground v.1.15,2013-02-02 18:09:00,
2013-02-02 12:14:00,38.6,25.1,30.13,South,189,14.0,-999.0,58,0.00,,,0.00,Wunderground v.1.15,2013-02-02 18:14:00,
2013-02-02 12:19:00,38.8,26.1,30.13,West,279,19.0,-999.0,60,0.00,,,0.00,Wunderground v.1.15,2013-02-02 18:19:00,
2013-02-02 12:24:00,38.7,27.2,30.14,West,279,22.0,-999.0,63,0.00,,,0.00,Wunderground v.1.15,2013-02-02 18:24:00,
2013-02-02 12:29:00,37.9,27.5,30.12,South,187,19.0,-999.0,66,0.00,,,0.00,Wunderground v.1.15,2013-02-02 18:29:00,
2013-02-02 12:34:00,37.2,27.2,30.11,SSW,192,15.0,-999.0,67,0.00,,,0.00,Wunderground v.1.15,2013-02-02 18:34:00,
2013-02-02 12:39:00,37.2,27.6,30.11,South,188,18.0,-999.0,68,0.00,,,0.00,Wunderground v.1.15,2013-02-02 18:39:00,
2013-02-02 12:43:00,37.3,27.7,30.11,West,279,17.0,-999.0,68,0.00,,,0.00,Wunderground v.1.15,2013-02-02 18:43:00,
2013-02-02 12:48:00,37.3,28.1,30.11,SSW,193,13.0,-999.0,69,0.00,,,0.00,Wunderground v.1.15,2013-02-02 18:48:00,
2013-02-02 12:53:00,37.3,27.7,30.10,South,175,15.0,-999.0,68,0.00,,,0.00,Wunderground v.1.15,2013-02-02 18:53:00,
2013-02-02 12:58:00,37.4,27.8,30.10,South,176,15.0,-999.0,68,0.00,,,0.00,Wunderground v.1.15,2013-02-02 18:58:00,
2013-02-02 13:03:00,37.5,28.2,30.10,West,279,13.0,-999.0,69,0.00,,,0.00,Wunderground v.1.15,2013-02-02 19:03:00,
2013-02-02 13:08:00,37.5,28.2,30.10,South,190,20.0,-999.0,69,0.00,,,0.00,Wunderground v.1.15,2013-02-02 19:08:00,
2013-02-02 13:13:00,37.5,28.6,30.10,South,182,22.0,-999.0,70,0.00,,,0.00,Wunderground v.1.15,2013-02-02 19:13:00,
2013-02-02 13:18:00,37.7,29.1,30.10,South,172,20.0,-999.0,71,0.00,,,0.00,Wunderground v.1.15,2013-02-02 19:18:00,
2013-02-02 13:23:00,37.9,29.0,30.11,South,173,15.0,-999.0,70,0.00,,,0.00,Wunderground v.1.15,2013-02-02 19:23:00,
2013-02-02 13:28:00,38.0,29.4,30.10,SSW,192,18.0,-999.0,71,0.00,,,0.00,Wunderground v.1.15,2013-02-02 19:28:00,
2013-02-02 13:33:00,38.7,30.1,30.10,West,279,13.0,-999.0,71,0.00,,,0.00,Wunderground v.1.15,2013-02-02 19:33:00,
2013-02-02 13:38:00,39.5,30.5,30.10,South,189,16.0,-999.0,70,0.00,,,0.00,Wunderground v.1.15,2013-02-02 19:38:00,
2013-02-02 13:43:00,39.6,30.6,30.09,West,279,17.0,-999.0,70,0.00,,,0.00,Wunderground v.1.15,2013-02-02 19:43:00,
2013-02-02 13:48:00,40.2,30.8,30.10,South,180,18.0,-999.0,69,0.00,,,0.00,Wunderground v.1.15,2013-02-02 19:48:00,
2013-02-02 13:53:00,40.3,30.6,30.10,West,279,13.0,-999.0,68,0.00,,,0.00,Wunderground v.1.15,2013-02-02 19:53:00,
2013-02-02 13:58:00,40.4,30.7,30.09,SW,219,15.0,-999.0,68,0.00,,,0.00,Wunderground v.1.15,2013-02-02 19:58:00,
2013-02-02 14:03:00,40.5,30.4,30.09,SSW,211,17.0,-999.0,67,0.00,,,0.00,Wunderground v.1.15,2013-02-02 20:03:00,
2013-02-02 14:08:00,40.7,30.6,30.11,SW,220,13.0,-999.0,67,0.00,,,0.00,Wunderground v.1.15,2013-02-02 20:08:00,
2013-02-02 14:13:00,40.9,31.1,30.10,West,279,12.0,-999.0,68,0.00,,,0.00,Wunderground v.1.15,2013-02-02 20:13:00,
2013-02-02 14:18:00,41.5,31.0,30.10,SW,232,16.0,-999.0,66,0.00,,,0.00,Wunderground v.1.15,2013-02-02 20:18:00,
2013-02-02 14:23:00,41.5,30.6,30.10,West,279,19.0,-999.0,65,0.00,,,0.00,Wunderground v.1.15,2013-02-02 20:23:00,
2013-02-02 14:28:00,41.4,30.1,30.10,West,279,18.0,-999.0,64,0.00,,,0.00,Wunderground v.1.15,2013-02-02 20:28:00,
2013-02-02 14:33:00,40.7,29.8,30.10,West,279,13.0,-999.0,65,0.00,,,0.00,Wunderground v.1.15,2013-02-02 20:33:00,
2013-02-02 14:38:00,40.4,30.7,30.10,SW,217,17.0,-999.0,68,0.00,,,0.00,Wunderground v.1.15,2013-02-02 20:38:00,
2013-02-02 14:43:00,40.5,30.4,30.11,SSW,210,16.0,-999.0,67,0.00,,,0.00,Wunderground v.1.15,2013-02-02 20:43:00,
2013-02-02 14:48:00,40.7,30.6,30.10,West,279,14.0,-999.0,67,0.00,,,0.00,Wunderground v.1.15,2013-02-02 20:48:00,
2013-02-02 14:53:00,40.9,30.0,30.10,SW,232,13.0,-999.0,65,0.00,,,0.00,Wunderground v.1.15,2013-02-02 20:53:00,
2013-02-02 14:58:00,40.7,29.8,30.10,SW,224,18.0,-999.0,65,0.00,,,0.00,Wunderground v.1.15,2013-02-02 20:58:00,
2013-02-02 15:03:00,40.9,30.0,30.10,West,279,12.0,-999.0,65,0.00,,,0.00,Wunderground v.1.15,2013-02-02 21:03:00,
2013-02-02 15:08:00,41.2,29.5,30.11,SW,223,6.0,-999.0,63,0.00,,,0.00,Wunderground v.1.15,2013-02-02 21:08:00,
2013-02-02 15:13:00,41.4,30.1,30.10,WSW,238,12.0,-999.0,64,0.00,,,0.00,Wunderground v.1.15,2013-02-02 21:13:00,
2013-02-02 15:18:00,41.8,29.7,30.10,West,279,14.0,-999.0,62,0.00,,,0.00,Wunderground v.1.15,2013-02-02 21:18:00,
2013-02-02 15:23:00,42.1,30.4,30.10,South,184,9.0,-999.0,63,0.00,,,0.00,Wunderground v.1.15,2013-02-02 21:23:00,
2013-02-02 15:28:00,42.1,30.4,30.09,South,191,13.0,-999.0,63,0.00,,,0.00,Wunderground v.1.15,2013-02-02 21:28:00,
2013-02-02 15:33:00,42.0,29.9,30.10,West,279,14.0,-999.0,62,0.00,,,0.00,Wunderground v.1.15,2013-02-02 21:33:00,
2013-02-02 15:38:00,41.9,29.8,30.10,SSW,211,12.0,-999.0,62,0.00,,,0.00,Wunderground v.1.15,2013-02-02 21:38:00,
2013-02-02 15:43:00,41.9,29.8,30.10,SSW,197,18.0,-999.0,62,0.00,,,0.00,Wunderground v.1.15,2013-02-02 21:43:00,
2013-02-02 15:48:00,41.7,29.6,30.10,SSW,211,12.0,-999.0,62,0.00,,,0.00,Wunderground v.1.15,2013-02-02 21:48:00,
2013-02-02 15:53:00,41.5,29.8,30.11,West,279,11.0,-999.0,63,0.00,,,0.00,Wunderground v.1.15,2013-02-02 21:53:00,
2013-02-02 15:58:00,41.6,29.9,30.10,SW,221,13.0,-999.0,63,0.00,,,0.00,Wunderground v.1.15,2013-02-02 21:58:00,
2013-02-02 16:03:00,41.6,29.1,30.10,SW,224,13.0,-999.0,61,0.00,,,0.00,Wunderground v.1.15,2013-02-02 22:03:00,
2013-02-02 16:08:00,41.6,29.5,30.10,WSW,248,10.0,-999.0,62,0.00,,,0.00,Wunderground v.1.15,2013-02-02 22:08:00,
2013-02-02 16:13:00,41.6,29.5,30.10,West,279,13.0,-999.0,62,0.00,,,0.00,Wunderground v.1.15,2013-02-02 22:13:00,
2013-02-02 16:18:00,41.4,29.3,30.12,SW,217,12.0,-999.0,62,0.00,,,0.00,Wunderground v.1.15,2013-02-02 22:18:00,
2013-02-02 16:23:00,41.2,29.2,30.10,West,279,11.0,-999.0,62,0.00,,,0.00,Wunderground v.1.15,2013-02-02 22:23:00,
2013-02-02 16:28:00,41.0,29.4,30.10,SW,214,12.0,-999.0,63,0.00,,,0.00,Wunderground v.1.15,2013-02-02 22:28:00,
2013-02-02 16:33:00,40.6,29.4,30.10,SSW,205,11.0,-999.0,64,0.00,,,0.00,Wunderground v.1.15,2013-02-02 22:33:00,
2013-02-02 16:38:00,40.3,29.1,30.11,SSW,210,6.0,-999.0,64,0.00,,,0.00,Wunderground v.1.15,2013-02-02 22:38:00,
2013-02-02 16:43:00,40.1,29.3,30.10,SW,216,8.0,-999.0,65,0.00,,,0.00,Wunderground v.1.15,2013-02-02 22:43:00,
2013-02-02 16:48:00,40.1,29.3,30.10,SSW,192,10.0,-999.0,65,0.00,,,0.00,Wunderground v.1.15,2013-02-02 22:48:00,
2013-02-02 16:53:00,40.1,29.6,30.11,West,279,7.0,-999.0,66,0.00,,,0.00,Wunderground v.1.15,2013-02-02 22:53:00,
2013-02-02 16:58:00,40.1,29.6,30.11,SSW,209,7.0,-999.0,66,0.00,,,0.00,Wunderground v.1.15,2013-02-02 22:58:00,
2013-02-02 17:03:00,40.2,29.7,30.11,SSW,199,10.0,-999.0,66,0.00,,,0.00,Wunderground v.1.15,2013-02-02 23:03:00,
2013-02-02 17:08:00,40.1,30.0,30.11,West,279,10.0,-999.0,67,0.00,,,0.00,Wunderground v.1.15,2013-02-02 23:08:00,
2013-02-02 17:13:00,40.2,30.1,30.13,SSW,203,9.0,-999.0,67,0.00,,,0.00,Wunderground v.1.15,2013-02-02 23:13:00,
2013-02-02 17:18:00,40.1,30.0,30.11,SSW,210,13.0,-999.0,67,0.00,,,0.00,Wunderground v.1.15,2013-02-02 23:18:00,
2013-02-02 17:23:00,40.1,29.6,30.11,SSW,196,10.0,-999.0,66,0.00,,,0.00,Wunderground v.1.15,2013-02-02 23:23:00,
2013-02-02 17:28:00,40.1,30.0,30.12,SSW,208,11.0,-999.0,67,0.00,,,0.00,Wunderground v.1.15,2013-02-02 23:28:00,
2013-02-02 17:33:00,40.1,30.0,30.12,SSW,193,9.0,-999.0,67,0.00,,,0.00,Wunderground v.1.15,2013-02-02 23:33:00,
2013-02-02 17:37:00,40.0,29.9,30.12,West,279,9.0,-999.0,67,0.00,,,0.00,Wunderground v.1.15,2013-02-02 23:37:00,
2013-02-02 17:42:00,40.0,29.9,30.13,SSW,200,13.0,-999.0,67,0.00,,,0.00,Wunderground v.1.15,2013-02-02 23:42:00,
2013-02-02 17:47:00,39.9,30.2,30.12,SSW,204,14.0,-999.0,68,0.00,,,0.00,Wunderground v.1.15,2013-02-02 23:47:00,
2013-02-02 17:52:00,39.9,30.2,30.12,West,279,14.0,-999.0,68,0.00,,,0.00,Wunderground v.1.15,2013-02-02 23:52:00,
2013-02-02 17:57:00,39.8,30.1,30.12,West,279,10.0,-999.0,68,0.00,,,0.00,Wunderground v.1.15,2013-02-02 23:57:00,
2013-02-02 18:02:00,39.8,30.1,30.12,SSW,203,7.0,-999.0,68,0.00,,,0.00,Wunderground v.1.15,2013-02-03 00:02:00,
2013-02-02 18:07:00,39.8,30.1,30.14,SSW,204,13.0,-999.0,68,0.00,,,0.00,Wunderground v.1.15,2013-02-03 00:07:00,
2013-02-02 18:12:00,39.8,30.5,30.13,South,188,11.0,-999.0,69,0.00,,,0.00,Wunderground v.1.15,2013-02-03 00:12:00,
2013-02-02 18:17:00,39.8,30.5,30.13,West,279,10.0,-999.0,69,0.00,,,0.00,Wunderground v.1.15,2013-02-03 00:17:00,
2013-02-02 18:22:00,39.8,30.5,30.13,West,279,11.0,-999.0,69,0.00,,,0.00,Wunderground v.1.15,2013-02-03 00:22:00,
2013-02-02 18:27:00,39.8,30.5,30.13,SSW,198,10.0,-999.0,69,0.00,,,0.00,Wunderground v.1.15,2013-02-03 00:27:00,
2013-02-02 18:32:00,39.8,30.5,30.13,SSW,199,13.0,-999.0,69,0.00,,,0.00,Wunderground v.1.15,2013-02-03 00:32:00,
2013-02-02 18:37:00,39.8,30.5,30.13,SSW,194,14.0,-999.0,69,0.00,,,0.00,Wunderground v.1.15,2013-02-03 00:37:00,
2013-02-02 18:42:00,39.8,30.5,30.13,South,184,13.0,-999.0,69,0.00,,,0.00,Wunderground v.1.15,2013-02-03 00:42:00,
2013-02-02 18:47:00,39.9,30.9,30.13,South,188,13.0,-999.0,70,0.00,,,0.00,Wunderground v.1.15,2013-02-03 00:47:00,
2013-02-02 18:52:00,39.9,30.9,30.13,SSW,193,13.0,-999.0,70,0.00,,,0.00,Wunderground v.1.15,2013-02-03 00:52:00,
2013-02-02 18:57:00,40.0,31.0,30.13,West,279,12.0,-999.0,70,0.00,,,0.00,Wunderground v.1.15,2013-02-03 00:57:00,
2013-02-02 19:02:00,40.0,31.0,30.13,SSW,203,13.0,-999.0,70,0.00,,,0.00,Wunderground v.1.15,2013-02-03 01:02:00,
2013-02-02 19:07:00,40.0,31.0,30.13,SW,214,11.0,-999.0,70,0.00,,,0.00,Wunderground v.1.15,2013-02-03 01:07:00,
2013-02-02 19:12:00,40.0,31.0,30.13,SSW,207,11.0,-999.0,70,0.00,,,0.00,Wunderground v.1.15,2013-02-03 01:12:00,
2013-02-02 19:17:00,40.0,31.0,30.13,West,279,7.0,-999.0,70,0.00,,,0.00,Wunderground v.1.15,2013-02-03 01:17:00,
2013-02-02 19:22:00,39.8,30.8,30.13,West,259,12.0,-999.0,70,0.00,,,0.00,Wunderground v.1.15,2013-02-03 01:22:00,
2013-02-02 19:27:00,39.7,30.7,30.14,SSW,213,12.0,-999.0,70,0.00,,,0.00,Wunderground v.1.15,2013-02-03 01:27:00,
2013-02-02 19:32:00,39.5,30.9,30.15,SW,217,11.0,-999.0,71,0.00,,,0.00,Wunderground v.1.15,2013-02-03 01:32:00,
2013-02-02 19:37:00,39.3,30.7,30.14,West,279,13.0,-999.0,71,0.00,,,0.00,Wunderground v.1.15,2013-02-03 01:37:00,
2013-02-02 19:42:00,39.0,30.7,30.14,West,279,13.0,-999.0,72,0.00,,,0.00,Wunderground v.1.15,2013-02-03 01:42:00,
2013-02-02 19:47:00,38.8,30.5,30.14,SW,217,12.0,-999.0,72,0.00,,,0.00,Wunderground v.1.15,2013-02-03 01:47:00,
2013-02-02 19:52:00,38.6,30.7,30.15,West,279,13.0,-999.0,73,0.00,,,0.00,Wunderground v.1.15,2013-02-03 01:52:00,
2013-02-02 19:57:00,38.5,30.6,30.14,SW,221,13.0,-999.0,73,0.00,,,0.00,Wunderground v.1.15,2013-02-03 01:57:00,
2013-02-02 20:02:00,38.4,30.8,30.14,SW,214,13.0,-999.0,74,0.00,,,0.00,Wunderground v.1.15,2013-02-03 02:02:00,
2013-02-02 20:07:00,38.3,30.7,30.14,SW,217,13.0,-999.0,74,0.00,,,0.00,Wunderground v.1.15,2013-02-03 02:07:00,
2013-02-02 20:12:00,38.3,30.7,30.14,SW,223,15.0,-999.0,74,0.00,,,0.00,Wunderground v.1.15,2013-02-03 02:12:00,
2013-02-02 20:17:00,38.2,30.6,30.14,West,279,13.0,-999.0,74,0.00,,,0.00,Wunderground v.1.15,2013-02-03 02:17:00,
2013-02-02 20:22:00,38.0,30.4,30.13,West,279,14.0,-999.0,74,0.00,,,0.00,Wunderground v.1.15,2013-02-03 02:22:00,
2013-02-02 20:27:00,37.9,30.4,30.13,SW,230,13.0,-999.0,74,0.00,,,0.00,Wunderground v.1.15,2013-02-03 02:27:00,
2013-02-02 20:32:00,37.9,30.4,30.12,WSW,244,14.0,-999.0,74,0.00,,,0.00,Wunderground v.1.15,2013-02-03 02:32:00,
2013-02-02 20:37:00,37.8,30.3,30.13,West,279,11.0,-999.0,74,0.00,,,0.00,Wunderground v.1.15,2013-02-03 02:37:00,
2013-02-02 20:42:00,37.6,30.1,30.13,WSW,249,12.0,-999.0,74,0.00,,,0.00,Wunderground v.1.15,2013-02-03 02:42:00,
2013-02-02 20:47:00,37.3,30.1,30.13,WSW,251,13.0,-999.0,75,0.00,,,0.00,Wunderground v.1.15,2013-02-03 02:47:00,
2013-02-02 20:52:00,37.1,29.9,30.13,WSW,249,12.0,-999.0,75,0.00,,,0.00,Wunderground v.1.15,2013-02-03 02:52:00,
2013-02-02 20:57:00,37.0,29.8,30.13,West,279,14.0,-999.0,75,0.00,,,0.00,Wunderground v.1.15,2013-02-03 02:57:00,
2013-02-02 21:02:00,36.8,29.9,30.13,West,279,13.0,-999.0,76,0.00,,,0.00,Wunderground v.1.15,2013-02-03 03:02:00,
2013-02-02 21:07:00,36.7,29.8,30.13,WSW,241,12.0,-999.0,76,0.00,,,0.00,Wunderground v.1.15,2013-02-03 03:07:00,
2013-02-02 21:12:00,36.5,29.7,30.13,WSW,244,12.0,-999.0,76,0.00,,,0.00,Wunderground v.1.15,2013-02-03 03:12:00,
2013-02-02 21:17:00,36.5,29.7,30.15,West,279,12.0,-999.0,76,0.00,,,0.00,Wunderground v.1.15,2013-02-03 03:17:00,
2013-02-02 21:22:00,36.4,29.9,30.14,WSW,238,12.0,-999.0,77,0.00,,,0.00,Wunderground v.1.15,2013-02-03 03:22:00,
2013-02-02 21:27:00,36.4,29.9,30.13,WSW,243,12.0,-999.0,77,0.00,,,0.00,Wunderground v.1.15,2013-02-03 03:27:00,
2013-02-02 21:32:00,36.5,30.0,30.13,West,279,12.0,-999.0,77,0.00,,,0.00,Wunderground v.1.15,2013-02-03 03:32:00,
2013-02-02 21:37:00,36.5,29.7,30.13,WSW,240,12.0,-999.0,76,0.00,,,0.00,Wunderground v.1.15,2013-02-03 03:37:00,
2013-02-02 21:42:00,36.6,29.7,30.14,West,279,11.0,-999.0,76,0.00,,,0.00,Wunderground v.1.15,2013-02-03 03:42:00,
2013-02-02 21:47:00,36.6,29.7,30.13,West,279,13.0,-999.0,76,0.00,,,0.00,Wunderground v.1.15,2013-02-03 03:47:00,
2013-02-02 21:52:00,36.6,29.7,30.14,WSW,248,13.0,-999.0,76,0.00,,,0.00,Wunderground v.1.15,2013-02-03 03:52:00,
2013-02-02 21:57:00,36.7,29.8,30.13,WSW,249,13.0,-999.0,76,0.00,,,0.00,Wunderground v.1.15,2013-02-03 03:57:00,
2013-02-02 22:02:00,36.7,29.5,30.13,WSW,239,13.0,-999.0,75,0.00,,,0.00,Wunderground v.1.15,2013-02-03 04:02:00,
2013-02-02 22:07:00,36.8,29.6,30.13,West,279,12.0,-999.0,75,0.00,,,0.00,Wunderground v.1.15,2013-02-03 04:07:00,
2013-02-02 22:12:00,36.6,29.4,30.13,WSW,244,10.0,-999.0,75,0.00,,,0.00,Wunderground v.1.15,2013-02-03 04:12:00,
2013-02-02 22:17:00,36.5,29.3,30.14,WSW,247,11.0,-999.0,75,0.00,,,0.00,Wunderground v.1.15,2013-02-03 04:17:00,
2013-02-02 22:22:00,36.3,29.1,30.13,West,279,12.0,-999.0,75,0.00,,,0.00,Wunderground v.1.15,2013-02-03 04:22:00,
2013-02-02 22:27:00,36.1,28.9,30.13,WSW,237,11.0,-999.0,75,0.00,,,0.00,Wunderground v.1.15,2013-02-03 04:27:00,
2013-02-02 22:32:00,35.9,28.7,30.13,SW,234,13.0,-999.0,75,0.00,,,0.00,Wunderground v.1.15,2013-02-03 04:32:00,
2013-02-02 22:37:00,35.8,28.6,30.13,WSW,244,12.0,-999.0,75,0.00,,,0.00,Wunderground v.1.15,2013-02-03 04:37:00,
2013-02-02 22:42:00,35.6,28.5,30.13,West,279,12.0,-999.0,75,0.00,,,0.00,Wunderground v.1.15,2013-02-03 04:42:00,
2013-02-02 22:46:00,35.5,28.7,30.12,WSW,252,11.0,-999.0,76,0.00,,,0.00,Wunderground v.1.15,2013-02-03 04:46:00,
2013-02-02 22:51:00,35.3,28.5,30.13,WSW,252,10.0,-999.0,76,0.00,,,0.00,Wunderground v.1.15,2013-02-03 04:51:00,
2013-02-02 22:56:00,35.1,28.3,30.12,West,279,10.0,-999.0,76,0.00,,,0.00,Wunderground v.1.15,2013-02-03 04:56:00,
2013-02-02 23:00:00,34.9,28.1,30.12,WSW,239,10.0,-999.0,76,0.00,,,0.00,Wunderground v.1.15,2013-02-03 05:00:00,
2013-02-02 23:01:00,34.9,28.1,30.12,WSW,240,10.0,-999.0,76,0.00,,,0.00,Wunderground v.1.15,2013-02-03 05:01:00,
2013-02-02 23:06:00,34.9,28.1,30.12,WSW,240,10.0,-999.0,76,0.00,,,0.00,Wunderground v.1.15,2013-02-03 05:06:00,
2013-02-02 23:11:00,34.9,28.1,30.12,WSW,243,7.0,-999.0,76,0.00,,,0.00,Wunderground v.1.15,2013-02-03 05:11:00,
2013-02-02 23:16:00,34.9,28.1,30.11,WSW,250,9.0,-999.0,76,0.00,,,0.00,Wunderground v.1.15,2013-02-03 05:16:00,
2013-02-02 23:21:00,34.8,28.0,30.11,WSW,246,7.0,-999.0,76,0.00,,,0.00,Wunderground v.1.15,2013-02-03 05:21:00,
2013-02-02 23:26:00,34.4,27.6,30.11,WSW,238,6.0,-999.0,76,0.00,,,0.00,Wunderground v.1.15,2013-02-03 05:26:00,
2013-02-02 23:31:00,34.1,28.0,30.11,WSW,240,6.0,-999.0,78,0.00,,,0.00,Wunderground v.1.15,2013-02-03 05:31:00,
2013-02-02 23:36:00,33.7,27.9,30.10,West,279,6.0,-999.0,79,0.00,,,0.00,Wunderground v.1.15,2013-02-03 05:36:00,
2013-02-02 23:41:00,33.4,27.6,30.10,SW,228,6.0,-999.0,79,0.00,,,0.00,Wunderground v.1.15,2013-02-03 05:41:00,
2013-02-02 23:46:00,33.2,27.4,30.10,West,279,6.0,-999.0,79,0.00,,,0.00,Wunderground v.1.15,2013-02-03 05:46:00,
2013-02-02 23:51:00,33.1,27.6,30.09,West,279,5.0,-999.0,80,0.00,,,0.00,Wunderground v.1.15,2013-02-03 05:51:00,
2013-02-02 23:56:00,32.9,27.7,30.09,SW,223,7.0,-999.0,81,0.00,,,0.00,Wunderground v.1.15,2013-02-03 05:56:00,